Location: Irma
(52.9170°N, 111.2330°W)
Time: 16:59:41
(UTC-06:00)

Cosmos 1633 Rocket - Visible Passes

Search period start: 27 August 2014 00:00
Search period end: 06 September 2014 00:00
Orbit: 609 x 626 km, 82.5° (Epoch: 25 August)

Date Brightness Start Highest point End Pass type
(mag) Time Alt. Az. Time Alt. Az. Time Alt. Az.
27 Aug 5.6 01:28:46 10° WNW 01:30:15 12° W 01:30:20 12° W visible
27 Aug 4.5 22:28:21 10° NNE 22:31:52 23° ENE 22:32:51 21° E visible
28 Aug 3.6 00:05:45 10° NNW 00:09:58 50° W 00:09:58 50° W visible
28 Aug 3.8 22:44:53 10° N 22:48:57 36° ENE 22:49:36 34° E visible
29 Aug 4.4 00:22:53 10° NNW 00:26:43 30° W 00:26:43 30° W visible
29 Aug 3.1 23:01:36 10° N 23:05:56 58° ENE 23:06:21 55° ESE visible
30 Aug 5.1 00:40:18 10° NW 00:43:21 19° W 00:43:28 19° W visible
30 Aug 5.0 21:41:46 10° NNE 21:44:20 15° ENE 21:46:00 13° E visible
30 Aug 2.9 23:18:26 10° NNW 23:22:50 84° W 23:23:07 77° SSW visible
31 Aug 5.6 00:58:27 10° WNW 00:59:53 12° W 01:00:14 11° W visible
31 Aug 4.5 21:58:00 10° NNE 22:01:30 23° ENE 22:02:47 20° E visible
31 Aug 3.6 23:35:24 10° NNW 23:39:38 49° W 23:39:54 49° WSW visible
01 Sep 3.8 22:14:32 10° N 22:18:35 36° ENE 22:19:34 32° E visible
01 Sep 4.4 23:52:32 10° NNW 23:56:21 30° W 23:56:41 29° W visible
02 Sep 3.1 22:31:14 10° N 22:35:34 59° ENE 22:36:23 49° ESE visible
03 Sep 5.1 00:09:57 10° NW 00:12:59 19° W 00:13:30 18° W visible
03 Sep 5.0 21:11:24 10° NNE 21:13:58 15° ENE 21:16:05 11° E visible
03 Sep 3.0 22:48:04 10° NNW 22:52:28 84° W 22:53:12 61° S visible
04 Sep 5.7 00:28:07 10° WNW 00:29:31 11° W 00:30:19 11° W visible
04 Sep 4.4 21:27:38 10° NNE 21:31:08 23° ENE 21:32:55 18° E visible
04 Sep 3.7 23:05:02 10° NNW 23:09:16 49° W 23:10:02 43° SW visible
05 Sep 3.8 21:44:10 10° N 21:48:13 36° ENE 21:49:46 27° ESE visible
05 Sep 4.5 23:22:11 10° NNW 23:25:59 30° W 23:26:53 27° WSW visible
